Regional Weather Roundup
Issued by NWS Goodland, KS

Home | Current Version | Previous Version | Graphics & Text | Print | Product List | Glossary Off
Versions: 1 2 3 4 5 6 7 8 9 10 11 12 13 14 15 16 17 18 19 20 21 22 23 24 25 26 27 28 29 30 31 32 33 34 35 36 37 38 39 40 41 42 43 44 45 46 47 48 49 50

000
ASUS43 KGLD 022108
RWRGLD

GOODLAND FORECAST AREA HOURLY WEATHER ROUNDUP
NATIONAL WEATHER SERVICE GOODLAND KS
300 PM MDT WED SEP 02 2015

...OFFICIAL OBSERVATIONS...

CITY           SKY/WX    TMP DP  RH WIND       PRES   REMARKS
GOODLAND KS    FAIR      96  47  18 SW12      29.91F
HILL CITY KS   FAIR     100  57  23 SE15G25   29.83F
IMPERIAL NEB   FAIR      97  50  20 SE12G17   29.88F
MCCOOK NEB     FAIR      99  52  20 SE13      29.84F
AKRON CO       FAIR      90  39  16 VRB5      29.99F
BURLINGTON CO  FAIR      93  50  23 S8        29.96F
LIMON CO       FAIR      88  40  18 NW12      30.06F
$$

...UNOFFICIAL OBSERVATIONS...

CITY           SKY/WX    TMP DP  RH WIND       PRES   REMARKS
COLBY KS       SUNNY     99  55  23 S8        29.89F
GOVE KS          N/A     98  32  10 MISG        N/A
LENORA KS        N/A     97  32  10 MISG        N/A
NORTON KS      SUNNY     95  50  21 SE8       29.83
TRENTON NEB      N/A     98  32  10 E13         N/A
KIT CARSON CO    N/A     93  48  21 MISG        N/A
YUMA CO          N/A     93  46  19 CALM        N/A
$$


USA.gov is the U.S. government's official web portal to all federal, state and local government web resources and services.